Location: Casa Rossa
(45.2389°N, 12.2056°E)
Time: 04:25:20
(UTC+00:00)

CZ-2D R/B - Pass Details

Date: 14 July 2020
Orbit: 792 x 844 km, 98.7° (Epoch: 11 August)

Event Time Altitude Azimuth Distance (km) Brightness Sun altitude
Rises 02:19:41 0° 1° (N) 3,346 6.1 -11.3°
Reaches altitude 10° 02:22:34 10° 345° (NNW) 2,419 5.0 -11.0°
Maximum altitude 02:26:22 20° 300° (WNW) 1,812 3.8 -10.5°
Drops below altitude 10° 02:30:11 10° 254° (WSW) 2,433 4.1 -10.0°
Enters shadow 02:30:27 - 252° (WSW) 2,509 4.1 -10.0°
